Nantucket, MA

6:43 AM EDT on April 24, 2017 (GMT -0400)
Nantucket Memorial

Weather History for KACK - April, 2012

Change the Weather History Date:

Tuesday, April 24, 2012

  Actual Average Record
Temperature  
Mean Temperature 52 °F -  
Max Temperature 55 °F 53 °F 69 °F (2008)
Min Temperature 48 °F 40 °F 31 °F (1971)
Degree Days  
Heating Degree Days 14    
Growing Degree Days 2 (Base 50)    
Moisture  
Dew Point 43 °F    
Average Humidity 76    
Maximum Humidity 97    
Minimum Humidity 55    
Precipitation  
Precipitation 0.00 in - - ()
Sea Level Pressure  
Sea Level Pressure 29.60 in    
Wind  
Wind Speed 14 mph (SSW)    
Max Wind Speed 25 mph    
Max Gust Speed 32 mph    
Visibility 10 miles    
Events Rain    
Averages and records for this station are not official NWS values.
T = Trace of Precipitation, MM = Missing Value Source: NWS Daily Summary

Daily Weather History Graph

Daily Weather History Graph

Search for Another Location

Airport or City:

Trip Planner

Search our weather history database for the weather conditions in past years. The results will help you decide how hot, cold, wet, or windy it might be!

Date:

Astronomy

Apr. 24, 2012 Rise Set
Actual Time 5:46 AM EDT 7:30 PM EDT
Civil Twilight 5:17 AM EDT 8:00 PM EDT
Nautical Twilight 4:41 AM EDT 8:35 PM EDT
Astronomical Twilight 4:03 AM EDT 9:14 PM EDT
Moon 7:38 AM EDT 10:49 PM EDT
Length of Visible Light 14h 42m
Length of Day
13h 43m
Waxing Crescent, 10% of the Moon is Illuminated
Apr 24
Waxing Crescent
Apr 29
First Quarter
May 5
Full
May 12
Last Quarter
May 20
New

Hourly Weather History & Observations

Time (EDT) Temp. Dew Point Humidity Pressure Visibility Wind Dir Wind Speed Gust Speed Precip Events Conditions
12:53 AM 48.9 °F 48.0 °F 97% 29.47 in 7.0 mi SSE 9.2 mph - 0.00 in Rain Light Rain
1:53 AM 48.9 °F 46.9 °F 93% 29.47 in 8.0 mi South 9.2 mph - 0.00 in   Overcast
2:53 AM 48.9 °F 46.9 °F 93% 29.48 in 8.0 mi South 9.2 mph - N/A   Overcast
3:53 AM 48.9 °F 46.0 °F 90% 29.48 in 10.0 mi South 9.2 mph - N/A   Mostly Cloudy
4:53 AM 50.0 °F 46.0 °F 86% 29.48 in 10.0 mi South 11.5 mph - N/A   Overcast
5:00 AM 50.0 °F 46.4 °F 87% 29.48 in 10.0 mi South 13.8 mph - N/A   Mostly Cloudy
5:09 AM 50.0 °F 46.4 °F 87% 29.48 in 10.0 mi South 13.8 mph - N/A   Overcast
5:22 AM 50.0 °F 46.4 °F 87% 29.48 in 10.0 mi South 13.8 mph - N/A   Overcast
5:34 AM 50.0 °F 46.4 °F 87% 29.48 in 10.0 mi SSW 15.0 mph 23.0 mph N/A   Overcast
5:53 AM 48.0 °F 44.1 °F 86% 29.49 in 10.0 mi SW 18.4 mph - N/A   Mostly Cloudy
6:04 AM 48.2 °F 44.6 °F 87% 29.50 in 9.0 mi SW 16.1 mph - N/A   Overcast
6:53 AM 48.0 °F 42.1 °F 80% 29.51 in 10.0 mi SW 16.1 mph 26.5 mph N/A   Mostly Cloudy
7:53 AM 50.0 °F 41.0 °F 71% 29.55 in 10.0 mi SW 18.4 mph 26.5 mph N/A   Mostly Cloudy
8:53 AM 51.1 °F 39.9 °F 66% 29.57 in 10.0 mi SW 17.3 mph - N/A   Scattered Clouds
9:53 AM 52.0 °F 39.0 °F 61% 29.60 in 10.0 mi SW 19.6 mph 32.2 mph N/A   Partly Cloudy
10:53 AM 52.0 °F 39.9 °F 63% 29.62 in 10.0 mi SW 25.3 mph 31.1 mph N/A   Mostly Cloudy
11:53 AM 53.1 °F 41.0 °F 64% 29.63 in 10.0 mi SW 20.7 mph 27.6 mph N/A   Partly Cloudy
12:53 PM 54.0 °F 39.9 °F 59% 29.64 in 10.0 mi SW 23.0 mph 28.8 mph N/A   Partly Cloudy
1:53 PM 54.0 °F 41.0 °F 62% 29.64 in 10.0 mi SSW 20.7 mph 27.6 mph N/A   Scattered Clouds
2:53 PM 55.0 °F 39.0 °F 55% 29.65 in 10.0 mi SSW 20.7 mph 27.6 mph N/A   Clear
3:53 PM 53.1 °F 41.0 °F 64% 29.68 in 10.0 mi SW 21.9 mph 27.6 mph N/A   Clear
4:53 PM 52.0 °F 39.0 °F 61% 29.69 in 10.0 mi SW 20.7 mph 28.8 mph N/A   Partly Cloudy
5:53 PM 51.1 °F 39.9 °F 66% 29.70 in 10.0 mi SSW 17.3 mph - N/A   Clear
6:53 PM 50.0 °F 39.9 °F 68% 29.72 in 10.0 mi South 13.8 mph - N/A   Clear
7:53 PM 48.9 °F 39.9 °F 71% 29.74 in 10.0 mi South 16.1 mph - N/A   Clear
8:53 PM 48.9 °F 39.9 °F 71% 29.76 in 10.0 mi South 13.8 mph - N/A   Clear
9:53 PM 48.9 °F 41.0 °F 74% 29.76 in 10.0 mi SSE 15.0 mph - N/A   Clear
10:53 PM 48.9 °F 42.1 °F 77% 29.76 in 10.0 mi SSE 15.0 mph - N/A   Clear
11:53 PM 48.9 °F 42.1 °F 77% 29.76 in 10.0 mi SSE 17.3 mph - N/A   Clear